Disclaimer

Please do not use the information listed here in-flight or in-navigation, as they are not provided to us by the airports but are provided by volunteers, so they might be outdated.

Search


Regions


Airport information page

No radio frequency information is available.

Airport informations:
Latitude: 55° 58' 23.62" N
Longitude: 021° 05' 37.88" E
Elevation: 33 feet - 10 meters
Operating hours: Remarks
Operating agency: Civil government, landing fees and diplomatic clearance may be required
Timezone: UTC+2(+3DT) - Last Sunday in March to last Sunday in October
Fuel: Jet A1, without icing nhibitor.

100/130 MIL Spec, low lead, aviation gasoline (BLUE)

Runway information:
01/19 - 6562 x 131 feet< - >2000 x 40 meters

Recent METARs:
EYPA 160153Z AUTO VRB02KT 9999 OVC034/// M01/M03 Q0997
EYPA 160220Z AUTO 33004KT 290V020 9999 -UP BKN036/// 01/M03 Q0997
EYPA 160250Z AUTO 32004KT 280V010 9999 OVC038/// 01/M03 Q0997

Airport on the map: